Tracking 29932 objects as of 4-Dec-2024
HD Live streaming from Space Station
objects crossing your sky now

STARLINK-30344

Track STARLINK-30344 now!
10-day predictions
STARLINK-30344 is classified as:


NORAD ID: 57737
Int'l Code: 2023-131F
Perigee: 568.0 km
Apogee: 570.4 km
Inclination: 43.0 °
Period: 95.9 minutes
Semi major axis: 6940 km
RCS: Unknown
Launch date: September 1, 2023
Source: United States (US)
Launch site: AIR FORCE EASTERN TEST RANGE (AFETR)
Your satellite tracking list
Your tracking list is empty




NASA's NSSDC Master Catalog

Two Line Element Set (TLE):
1 57737U 23131F   24338.91668981  .00594596  00000-0  42477-1 0  9990
2 57737  43.0009 155.7568 0001715 288.1984 266.7821 15.01559468  5830
Source of the keplerian elements: AFSPC